This is the latest recevied weather packets stored in our database for station/object IZ1UKX-13. If no packets are shown the sender has not sent any weather packets the latest 10 day(s).
| Time | Temp. | Humidity | Pressure | Rain* | Wind** | Luminosity | Snow |
|---|---|---|---|---|---|---|---|
| 1777904223 | 20.56° C | 55% | 1022.7 hPa | 0 mm | - | 0 W/m² | - |
| 1777903924 | 20° C | 56% | 1023.2 hPa | 0 mm | - | 0 W/m² | - |
| 1777903624 | 20° C | 57% | 1023.2 hPa | 0 mm | - | 0 W/m² | - |
| 1777903324 | 20° C | 56% | 1023.2 hPa | 0 mm | - | 0 W/m² | - |
| 1777903024 | 20° C | 55% | 1023.2 hPa | 0 mm | - | 0 W/m² | - |
| 1777902724 | 20° C | 55% | 1023.2 hPa | 0 mm | - | 0 W/m² | - |
| 1777902424 | 20.56° C | 54% | 1023.2 hPa | 0 mm | - | 0 W/m² | - |
| 1777902399 | 20.56° C | 54% | 1022.7 hPa | 0 mm | - | 0 W/m² | - |
| 1777902099 | 20.56° C | 46% | 1023.2 hPa | 0 mm | - | 0 W/m² | - |
| 1777901798 | 20.56° C | 55% | 1023.2 hPa | 0 mm | - | 0 W/m² | - |
| 1777901498 | 20.56° C | 53% | 1022.7 hPa | 0 mm | - | 0 W/m² | - |
| 1777901199 | 21.11° C | 46% | 1022.7 hPa | 0 mm | - | 0 W/m² | - |
| 1777900899 | 20.56° C | 51% | 1022.7 hPa | 0 mm | - | 0 W/m² | - |
| 1777900598 | 20.56° C | 52% | 1022.7 hPa | 0 mm | - | 0 W/m² | - |
| 1777900298 | 20° C | 42% | 1023.2 hPa | 0 mm | - | 0 W/m² | - |
| 1777899998 | 20° C | 40% | 1023.2 hPa | 0 mm | - | 0 W/m² | - |
| 1777899699 | 20° C | 44% | 1023.2 hPa | 0 mm | - | 0 W/m² | - |
| 1777899399 | 20.56° C | 40% | 1023.2 hPa | 0 mm | - | 0 W/m² | - |
| 1777899098 | 20.56° C | 40% | 1023.2 hPa | 0 mm | - | 0 W/m² | - |
| 1777898798 | 20.56° C | 43% | 1023.2 hPa | 0 mm | - | 0 W/m² | - |
| 1777898499 | 21.11° C | 43% | 1022.7 hPa | 0 mm | - | 0 W/m² | - |
| 1777898198 | 20.56° C | 44% | 1023.2 hPa | 0 mm | - | 0 W/m² | - |
| 1777897899 | 21.11° C | 50% | 1022.7 hPa | 0 mm | - | 0 W/m² | - |
| 1777897598 | 22.22° C | 43% | 1022.7 hPa | 0 mm | - | 0 W/m² | - |
| 1777897299 | 22.22° C | 46% | 1022.7 hPa | 0 mm | - | 0 W/m² | - |
* Rain latest hour (hover to see other rain measurements)
** Current wind speed in m/s (hover to see current wind gust speed)